Location: Fontevrault
(47.1823°N, 0.0493°E)
Time: 09:25:29
(UTC+00:00)

Lacrosse 5 - Pass Details

Date: 29 October 2021
Orbit: 714 x 724 km, 57.0° (Epoch: 28 August)

Event Time Altitude Azimuth Distance (km) Brightness Sun altitude
Rises 19:42:19 0° 229° (SW) 3,128 5.6 -30.1°
Reaches altitude 10° 19:44:41 10° 229° (SW) 2,210 4.8 -30.5°
Enters shadow 19:47:23 32° 228° (SW) 1,229 3.2 -30.9°
